PADRE (64559 NORAD) Tracking and Keplerian Element Data

This shows tracking and keplerian element data for the satellite.

Feedback or suggestion? Click here.




ElementValue
Catalog64559
NamePADRE
Epoch Orbit2716
Epoch Day354.22953197
Epoch Year2025
RAAN105.512
Inclination97.7591
Eccentricity0.0002954
Argument of Perigee119.099
Mean Anonmoly241.0525
Mean Motion14.91650162
Decay Rate1.395E-05
L11 64559U 25135AH 25354.22953197 .00001395 00000+0 14433-3 0 9997
L22 64559 97.7591 105.5120 0002954 119.0990 241.0525 14.91650162 27162



Live tracking and technical data element details for PADRE (NORAD 64559). PADRE can be tracked NOW for your location showing map with azimuth and elevation plus other details from your city location.







IsCatalogInMostPopularTable: catalog: 64559, numindb: 5
Update: records affected: 1



GetName: 64559 PADRE

Hit Count: updated at: Tue, 21 Apr 2026 19:33:27 GMT